Weather in Lazurnyy

Russia / Chelyabinsk Oblast     55°21′24″N   61°41′12″E
temp.,
°C
wind,
m/s
gust,
m/s
humid.,
%
clouds,
%
prec.,
mm/h
press.,
hPa
HPBL,
m
18 january, mon
mon1823:00−17w513859 0.0 1011287
02:00−18w49860 0.0 1013153
05:00−19w49870 0.0 1015176
08:00−20wnw49900 0.0 1017170
11:00−19wnw49900 0.0 1019251
14:00−17wnw358934 0.0 1019243
17:00−19w338917 0.0 102122
20:00−20wsw23840 0.0 102120
19 january, tue
tue1923:00−21sw128432 0.0 102220
02:00−21ssw128297 0.0 102220
05:00−20sse228298 0.0 102220
08:00−19s2286100 0.0 102224
11:00−17sse2486100 0.0 1022147
14:00−16se3488100 0.0 1022246
17:00−16ese3592100 0.0 1021247
20:00−16ese3693100 0.1 1021281
20 january, wed
wed2023:00−16ese4891100 0.1 1019297
02:00−15e3891100 0.0 1018353
05:00−15e5991100 0.1 1016401
08:00−15ese4896100 2.2 1013436
11:00−15ese2495100 3.9 1012319
14:00−14sse1190100 0.5 1011288
17:00−15wsw3596100 0.7 1011142
20:00−15sw5109198 0.0 1011274
21 january, thu
thu2123:00−15w4109197 0.0 1012410
02:00−16w5109499 0.1 1013605
05:00−18w5119299 0.2 1012621
08:00−19w41289100 0.0 1013563
11:00−18w5138695 0.0 1014519
14:00−17w5108559 0.0 1015545
17:00−19w458944 0.0 101582
20:00−20w4108929 0.0 1016227
22 january, fri
fri2223:00−20w368959 0.0 1016121
02:00−22wsw338960 0.0 101623
05:00−19sw339156 0.0 101551
08:00−16ssw3696100 0.5 1014219
11:00−13ssw4795100 1.6 1011266
14:00−10sw4795100 1.5 1009481
17:00−13nw71192100 2.7 1009656
20:00−18wnw499292 0.1 1012139